Regional Weather Roundup
Issued by NWS Charleston, WV

Home | Current Version | Previous Version | Text Only | Print | Product List | Glossary Off
Versions: 1 2 3 4 5 6 7 8 9 10 11 12 13 14 15 16 17 18 19 20 21 22 23 24 25 26 27 28 29 30 31 32 33 34 35 36 37 38 39 40 41 42 43 44 45 46 47 48

000
ASUS41 KRLX 111410
RWRRLX
West Virginia Regional Weather Roundup
National Weather Service Charleston WV
1000 AM EDT FRI JUL 11 2014

Note: "fair" indicates few or no clouds below 12,000 feet with no
significant weather and/or obstructions to visibility.

WVZ003-111500-
Northern Panhandle of West Virginia

CITY           SKY/WX    TMP DP  RH WIND       PRES   REMARKS
WHEELING       SUNNY     72  62  71 CALM      30.23S
$$

WVZ009-111500-
Northwest West Virginia

CITY           SKY/WX    TMP DP  RH WIND       PRES   REMARKS
PARKERSBURG    SUNNY     73  65  75 CALM      30.24S
$$

WVZ006-111500-
Western West Virginia

CITY           SKY/WX    TMP DP  RH WIND       PRES   REMARKS
HUNTINGTON     SUNNY     74  64  71 VRB3      30.22R
$$

WVZ015-111500-
West Central West Virginia

CITY           SKY/WX    TMP DP  RH WIND       PRES   REMARKS
CHARLESTON     MOSUNNY   70  67  90 CALM      30.22S
$$

WVZ031-111500-
North Central West Virginia

CITY           SKY/WX    TMP DP  RH WIND       PRES   REMARKS
CLARKSBURG     SUNNY     74  64  71 CALM      30.23S
MORGANTOWN     SUNNY     75  63  66 S5        30.24S
$$

WVZ035-042-045-111500-
South Central West Virginia

CITY           SKY/WX    TMP DP  RH WIND       PRES   REMARKS
BECKLEY        SUNNY     73  60  63 W5        30.28R
BLUEFIELD      SUNNY     74  62  66 CALM      30.30R
LEWISBURG      SUNNY     71  61  71 CALM      30.28R
$$

WVZ047-111500-
Northern Mountains of West Virginia

CITY           SKY/WX    TMP DP  RH WIND       PRES   REMARKS
ELKINS         NOT AVBL
$$

WVZ052-111500-
Eastern Panhandle of West Virginia

CITY           SKY/WX    TMP DP  RH WIND       PRES   REMARKS
MARTINSBURG    SUNNY     76  62  62 VRB3      30.23S
PETERSBURG     CLOUDY    65  58  79 CALM      30.27R
$$


USA.gov is the U.S. government's official web portal to all federal, state and local government web resources and services.